カタログに戻る

TEVEL2-7

運用中アマチュア無線SSO
NORAD 63238·PAYLOAD·🇮🇱 Israel

打ち上げ Mar 15, 2025 から Vandenberg Space Force Base

Loading…

次のパス (今後24時間)

TLE

最新Source: AMSAT

元期: Sep 13, 2026, 15:39 UTC

1 63238U 25052AE  26256.65221529  .00013320  00000-0  40647-3 0  9992
2 63238  97.3799 151.7775 0006007 167.3882 192.7513 15.34030967 83578

AllMySatでTEVEL2-7をリアルタイム追跡

Download on the App Store